FENGYUN 1C DEB, 30441

Orbit data source: Space-Track

FENGYUN 1C DEB, 30441 is space debris in SSO originally from a launch on Mon, 10 May 1999 UTC launched from the Taiyaun Space Center, China (TSC). Fengyun 1C debris stems from the Chinese weather satellite Fengyun-1C, which was intentionally destroyed by a Chinese anti-satellite missile in 2007. This event dramatically increased the amount of space debris, with thousands of trackable fragments posing hazards to satellites and human spaceflight. The Fengyun 1C debris cloud has become a focal point in discussions about space sustainability and the need for international regulations to prevent the creation of new debris.

Loading next visibility...
Identifier
30441, 1999-025AFC
Orbit
SSO
Country
Flag of CNCN / PRC
Related business
Manufacturer
Unknown
Mission
Spacecraft
Bus & Motor
Unknown
Mass
Unknown
Launch date (UTC)
1999-05-10 (27 years ago)
Launch vehicle
Unknown
Launch site
Taiyaun Space Center, China (TSC)
Object type
Payload
Rocket body
Debris
Shape & HBR
Unknown shape, 0.1 m
Radar Cross Section
Medium (>0.1 m² and <1 m²)

Expand to show TLE details & history
Last TLE update: 13 hours ago

TLE from 13 hours ago
0 FENGYUN 1C DEB
1 30441U 99025AFC 26175.21819971  .00000268  00000-0  27092-3 0  9995
2 30441  99.1267 262.1956 0185231 104.8335 257.3415 13.77903800975346
Epoch: 2026-06-24T05:14Z
TLE epoch observation values (Epoch: 2026-06-24T05:14:12.454Z)
Latitude
-0.00008°
Longitude
-88.73485°
Altitude
1,006.401 km
Speed
7.332 km/s
True Right ascension
17h 28m 46s
True Declination
0° 00' 00"
Sunlit
Object was in full shadow at epoch
Visualization orbit readout
Latitude
Unknown
Longitude
Unknown
Altitude
Unknown
Speed
Unknown
Apparent Right ascension
Unknown
Apparent Declination
Unknown
Sunlit
N/A
Visualization observer readout
Local Sidereal Time
05:12:07
Azimuth
Unknown
Elevation
Unknown
Doppler factor
Unknown
Orbital elements
Apogee altitude
1,104.649 km
Perigee altitude
832.481 km
Semi-major axis
7,346.702 km
Eccentricity
0.01852
Inclination
99.1267°
RAAN
262.1956°
Arg. of periapsis
104.8335°
True anomaly
255.2814°
Mean anomaly
257.3415°
Eccentric anomaly
256.31035°
Mean motion
3.44671 °/min
Orbital period
104.45 mins
BSTAR
0.00027092
Loading maneuver chart data...
Computing Atmospheric mass density...

Documentation

Showing up to 5 results
|